[[{"header":{"parameterUnit":"m.s-1","parameterCategory":1,"la1":30.2991,"la2":30.254,"lo1":-89.0895,"lo2":-89.0444,"dy":0.0017,"dx":0.0017,"nx":28,"ny":28,"refTime":"2023-11-06T03:00:00:Z","depth":0,"parameterNumber":2,"parameterNumberName":"U-component_of_WINDS"},"data":[0,0,0,0,0,0,0,0,0,0,0,0,0,0,0,0,0,0,0,0,0,0,0,0,0,0,0,0,0,0,0,0,0,0,0,0,0,0,0,0,0,0,0,0,0,0,0,0,0,0,0,0,0,0,0,0,0,0,1.43,1.43,0,1.4363,1.4363,1.4364,1.4342,1.4341,1.4339,1.4338,1.4404,1.4407,1.441,0,0,0,0,0,0,0,0,0,0,0,0,0,1.4161,1.4164,1.43,1.43,1.4301,1.4363,1.4363,1.4364,1.4343,1.4341,1.4339,1.4338,1.4403,1.4407,1.441,0,0,0,0,0,0,0,0,0,0,0,0,0,1.4223,1.4165,1.4299,1.4298,1.4298,1.4362,1.4363,1.4365,1.4343,1.4341,1.4339,1.4337,1.4402,1.4406,1.4411,1.4481,0,0,1.4425,1.4427,0,0,0,0,0,0,0,0,1.4219,1.4228,1.4297,1.4298,1.4298,1.4342,1.4339,1.4404,1.4343,1.4326,1.4338,1.4336,1.4385,1.4391,1.4408,1.4484,1.4487,1.4425,1.4428,1.443,1.4431,0,0,0,0,0,0,0,1.4215,1.4225,1.4325,1.4298,1.4299,1.4294,1.43,1.4351,1.4367,1.4327,1.4326,1.4334,1.4385,1.4403,1.4409,1.4488,1.4425,1.4429,1.4432,1.4434,1.4625,1.4628,0,0,0,0,0,0,1.421,1.4222,1.4323,1.4326,1.4253,1.4298,1.4305,1.433,1.4366,1.4369,1.4335,1.4332,1.4397,1.4404,1.4411,1.4496,1.443,1.4434,1.4437,1.4623,1.4626,1.4628,0,0,0,0,0,0,1.4207,1.4219,1.432,1.4274,1.4286,1.4303,1.4331,1.4333,1.4351,1.4372,1.4375,1.4351,1.4395,1.4405,1.4464,1.4498,1.4436,1.4441,1.462,1.4624,1.4627,1.4665,0,0,0,0,0,0,1.4203,1.4218,1.4245,1.4274,1.4289,1.4371,1.4333,1.4336,1.4358,1.4355,1.4387,1.4391,1.4394,1.4457,1.4468,1.4503,1.4444,1.4617,1.4622,1.4626,1.4661,1.4669,1.4677,0,0,0,0,0,1.4199,1.4254,1.4247,1.4259,1.4322,1.4373,1.4381,1.4384,1.4361,1.4388,1.4402,1.439,1.4492,1.4463,1.4476,1.4512,1.4615,1.4621,1.4626,1.4657,1.4668,1.4676,0,0,0,0,0,0,1.4228,1.4257,1.425,1.4316,1.4342,1.4369,1.4403,1.4395,1.4429,1.4424,1.4427,1.4434,1.4495,1.4509,1.4477,1.4582,1.455,1.4558,1.457,1.458,1.4588,1.4583,1.4448,0,0,0,0,0,1.4242,1.4281,1.4305,1.4361,1.4374,1.4387,1.4409,1.4409,1.4436,1.4447,1.4465,1.4493,1.4531,1.4557,1.4593,1.4663,1.4669,1.4694,1.4702,1.4708,1.4715,1.4753,1.4764,1.4646,1.4646,1.4645,0,0,1.4272,1.4293,1.4317,1.4367,1.4387,1.4428,1.4396,1.444,1.447,1.4454,1.4511,1.4525,1.4556,1.462,1.465,1.4635,1.4749,1.4715,1.472,1.4723,1.4759,1.4771,1.4781,1.4649,1.4648,1.4648,0,0,1.4347,1.4367,1.4415,1.4436,1.4467,1.4475,1.4487,1.4515,1.4524,1.4581,1.457,1.4605,1.4672,1.4694,1.4714,1.4797,1.4787,1.4809,1.485,1.4887,1.4897,1.4905,1.4934,1.4945,1.4816,1.4816,1.4816,0,1.438,1.444,1.4441,1.4486,1.4508,1.4496,1.4545,1.4565,1.4607,1.4623,1.4605,1.4688,1.4708,1.4777,1.4797,1.4814,1.4828,1.4805,1.4895,1.4903,1.4911,1.4939,1.495,1.4819,1.4818,1.4818,1.4818,0,1.4479,1.4521,1.4556,1.4596,1.4622,1.4669,1.4678,1.4705,1.4703,1.4712,1.477,1.4794,1.4835,1.4851,1.485,1.4921,1.491,1.4894,1.4862,1.4925,1.4951,1.4962,1.4822,1.4821,1.482,1.482,0,0,1.4574,1.4614,1.4627,1.4644,1.4678,1.471,1.4757,1.4796,1.4819,1.4848,1.4887,1.4943,1.4928,1.4951,1.4952,1.4984,1.5048,1.4964,1.4965,1.4979,1.5128,1.514,1.5152,1.5042,1.5044,1.5046,1.5125,0,1.4651,1.4732,1.4734,1.4808,1.4847,1.4835,1.4876,1.4901,1.4912,1.4946,1.4958,1.4998,1.4975,1.4988,1.502,1.5034,1.5078,1.5028,1.5078,1.508,1.507,1.5166,1.5179,1.5252,1.5135,1.5137,1.5138,0,1.4751,1.4783,1.4861,1.4888,1.4905,1.4941,1.4977,1.501,1.5039,1.5044,1.5069,1.5066,1.5113,1.508,1.5146,1.5112,1.5133,1.5143,1.5146,1.515,1.5113,1.5173,1.5276,1.5287,1.5155,1.5154,1.5152,0,1.4812,1.4874,1.4929,1.4945,1.4978,1.5004,1.5019,1.5045,1.5069,1.5101,1.5116,1.5154,1.5174,1.5204,1.521,1.5185,1.5276,1.5243,1.5282,1.5282,1.5301,1.53,1.5409,1.5315,1.5315,1.5315,1.5315,0,1.4897,1.4945,1.4957,1.499,1.5044,1.5047,1.51,1.5113,1.5136,1.5173,1.5165,1.5199,1.5206,1.5242,1.5247,1.5301,1.531,1.5316,1.5317,1.5317,1.5316,1.533,1.5325,1.5318,1.5317,1.5317,1.5316,0,1.4974,1.4984,1.5042,1.5069,1.5077,1.5115,1.5139,1.5171,1.5181,1.5227,1.5238,1.5253,1.5295,1.5304,1.5354,1.5357,1.5421,1.5417,1.5411,1.5411,1.5449,1.5445,1.557,1.5587,1.5483,1.5484,1.5484,0,1.5028,1.5065,1.5095,1.5119,1.5135,1.5173,1.5197,1.5202,1.5227,1.5262,1.529,1.533,1.5363,1.543,1.5446,1.5484,1.5481,1.5522,1.5487,1.5485,1.5481,1.5479,1.5482,1.5529,1.553,1.5531,1.5532,0,1.5122,1.5125,1.5159,1.5196,1.5224,1.5253,1.5281,1.53,1.5309,1.5338,1.538,1.5405,1.5456,1.5496,1.5534,1.555,1.5543,1.5543,1.5554,1.5554,1.5549,1.5552,1.5429,1.554,1.5539,1.5539,1.5538,1.5538,1.5189,1.5221,1.5247,1.5286,1.5307,1.5333,1.5364,1.5378,1.5413,1.5454,1.5455,1.5501,1.5528,1.5578,1.5597,1.5633,1.562,1.5636,1.564,1.5644,1.5647,1.5543,1.564,1.564,1.564,1.564,1.5639,0,1.5282,1.5299,1.5334,1.5373,1.5403,1.5393,1.5423,1.5449,1.549,1.5516,1.5548,1.5597,1.5636,1.5655,1.5694,1.5719,1.5717,1.5729,1.5727,1.5731,1.5657,1.5643,1.5731,1.5731,1.5731,1.5731,1.5731,1.5731,1.5335,1.5388,1.5394,1.5458,1.5474,1.5519,1.5537,1.5561,1.5581,1.5636,1.5668,1.568,1.5703,1.5744,1.5779,1.5784,1.5799,1.5813,1.5816,1.5746,1.5736,1.5728,1.5715,1.5816,1.5816,1.5887,1.5888,1.5889]},{"header":{"parameterUnit":"m.s-1","parameterCategory":1,"la1":30.2991,"la2":30.254,"lo1":-89.0895,"lo2":-89.0444,"dy":0.0017,"dx":0.0017,"nx":28,"ny":28,"refTime":"2023-11-06T03:00:00:Z","depth":0,"parameterNumber":3,"parameterNumberName":"V-component_of_WINDS"},"data":[0,0,0,0,0,0,0,0,0,0,0,0,0,0,0,0,0,0,0,0,0,0,0,0,0,0,0,0,0,0,0,0,0,0,0,0,0,0,0,0,0,0,0,0,0,0,0,0,0,0,0,0,0,0,0,0,0,0,1.1457,1.1457,0,1.1401,1.14,1.14,1.134,1.1339,1.1338,1.1337,1.1278,1.1277,1.1276,0,0,0,0,0,0,0,0,0,0,0,0,0,1.1511,1.151,1.1457,1.1457,1.1456,1.1401,1.14,1.14,1.134,1.1339,1.1338,1.1337,1.1278,1.1277,1.1276,0,0,0,0,0,0,0,0,0,0,0,0,0,1.1474,1.151,1.1458,1.142,1.1416,1.1401,1.14,1.1399,1.134,1.1339,1.1338,1.1337,1.1278,1.1277,1.1276,1.1293,0,0,1.1272,1.1272,0,0,0,0,0,0,0,0,1.1476,1.1472,1.1426,1.1422,1.1418,1.1376,1.1397,1.1364,1.1341,1.1369,1.1337,1.1336,1.1311,1.1307,1.1299,1.1291,1.1288,1.1272,1.1271,1.1271,1.127,0,0,0,0,0,0,0,1.1479,1.1474,1.1435,1.1425,1.142,1.1405,1.1398,1.1391,1.1348,1.1366,1.1362,1.1356,1.1309,1.1301,1.1298,1.1287,1.1272,1.1271,1.127,1.127,1.1288,1.1289,0,0,0,0,0,0,1.1488,1.1477,1.1437,1.1433,1.1445,1.1405,1.1397,1.1391,1.1348,1.134,1.1357,1.1354,1.1304,1.1299,1.1295,1.1312,1.1271,1.127,1.1269,1.1287,1.1288,1.129,0,0,0,0,0,0,1.1489,1.1485,1.1439,1.1454,1.1447,1.1405,1.1398,1.139,1.1382,1.1341,1.1333,1.1357,1.1302,1.1297,1.1294,1.1309,1.1269,1.1268,1.1285,1.1287,1.1289,1.1347,0,0,0,0,0,0,1.1491,1.1485,1.1493,1.1455,1.1446,1.144,1.1399,1.139,1.1381,1.1375,1.1339,1.1331,1.1301,1.1296,1.1293,1.1307,1.1267,1.1284,1.1286,1.1288,1.1343,1.135,1.1356,0,0,0,0,0,1.1493,1.1511,1.1493,1.1489,1.1454,1.1441,1.1436,1.1402,1.1382,1.1388,1.1361,1.1332,1.1308,1.1297,1.1292,1.1306,1.1283,1.1286,1.1288,1.134,1.1349,1.1356,0,0,0,0,0,0,1.1551,1.1505,1.1485,1.1492,1.1471,1.1431,1.1438,1.1412,1.1396,1.1392,1.1348,1.1341,1.1343,1.1324,1.1312,1.132,1.1291,1.1293,1.1332,1.134,1.1346,1.1351,1.1266,0,0,0,0,0,1.1565,1.1559,1.1518,1.1528,1.1519,1.148,1.1473,1.1448,1.1425,1.1415,1.1388,1.1366,1.1353,1.1345,1.1331,1.134,1.133,1.1347,1.1354,1.1359,1.1361,1.1363,1.137,1.1299,1.1299,1.1299,0,0,1.1593,1.1567,1.1566,1.1539,1.152,1.1514,1.1473,1.1468,1.1463,1.1414,1.141,1.1389,1.1361,1.1364,1.1364,1.1348,1.1379,1.1363,1.1367,1.1367,1.1367,1.1374,1.138,1.1301,1.13,1.13,0,0,1.1641,1.1621,1.1626,1.1608,1.158,1.1554,1.1555,1.1519,1.1504,1.1499,1.1462,1.1454,1.1433,1.1414,1.1402,1.1442,1.1414,1.1438,1.1472,1.1474,1.148,1.1485,1.1498,1.1503,1.144,1.144,1.1441,0,1.1679,1.1669,1.1632,1.163,1.1618,1.1574,1.1579,1.1562,1.1531,1.1524,1.1507,1.1479,1.1457,1.1454,1.1464,1.1455,1.1454,1.1442,1.1482,1.1487,1.1491,1.1503,1.1508,1.1444,1.1443,1.1443,1.1443,0,1.1717,1.1711,1.1718,1.1689,1.1679,1.168,1.1642,1.1635,1.1611,1.1587,1.1581,1.1553,1.1532,1.1529,1.1506,1.1523,1.1514,1.1491,1.1461,1.1501,1.1512,1.1516,1.1448,1.1447,1.1446,1.1445,0,0,1.1801,1.1751,1.1755,1.174,1.1706,1.1699,1.1697,1.1677,1.1672,1.1651,1.1648,1.1631,1.1608,1.1594,1.1568,1.157,1.1602,1.1545,1.1544,1.1557,1.1618,1.1636,1.1642,1.1583,1.1584,1.1584,1.162,0,1.1843,1.1838,1.1804,1.1808,1.1801,1.1759,1.1757,1.1735,1.1711,1.1701,1.1674,1.1663,1.1635,1.1626,1.1626,1.1598,1.1613,1.1595,1.1578,1.1578,1.1587,1.1648,1.1667,1.1702,1.1624,1.1625,1.1625,0,1.1891,1.1873,1.1878,1.1842,1.1837,1.1837,1.1815,1.1806,1.1779,1.1761,1.1746,1.1715,1.171,1.1682,1.1672,1.1661,1.1652,1.1637,1.1637,1.1634,1.1604,1.1646,1.1712,1.1718,1.1631,1.1631,1.163,0,1.1951,1.1928,1.1928,1.1917,1.1875,1.1875,1.1858,1.183,1.182,1.18,1.1793,1.1773,1.1762,1.1746,1.1711,1.1694,1.1705,1.1674,1.169,1.1691,1.1694,1.1694,1.176,1.1689,1.1689,1.1689,1.1688,0,1.2001,1.2005,1.1954,1.1954,1.1956,1.1917,1.192,1.1898,1.1874,1.1867,1.1829,1.1823,1.1777,1.1766,1.1738,1.1734,1.1729,1.1714,1.1706,1.1717,1.1719,1.1711,1.1708,1.169,1.169,1.1689,1.1689,0,1.2069,1.2035,1.2031,1.1992,1.1982,1.1986,1.1951,1.1949,1.1923,1.1915,1.1911,1.187,1.1855,1.1818,1.1792,1.1773,1.1776,1.1763,1.1786,1.1781,1.1798,1.1797,1.1861,1.1866,1.1792,1.1793,1.1794,0,1.2103,1.2105,1.2066,1.2059,1.2043,1.2033,1.2022,1.1983,1.1973,1.1942,1.1943,1.1925,1.1908,1.1885,1.1852,1.1832,1.1818,1.1841,1.1815,1.1825,1.1818,1.1818,1.1817,1.1847,1.1848,1.1849,1.185,0,1.2166,1.215,1.2136,1.2117,1.2105,1.2088,1.2068,1.2065,1.202,1.2011,1.1995,1.1982,1.1956,1.1938,1.1913,1.1893,1.1864,1.1859,1.1861,1.1872,1.1885,1.1878,1.1802,1.1857,1.1857,1.1856,1.1856,1.1855,1.2218,1.2218,1.219,1.2176,1.2157,1.214,1.2135,1.2108,1.2095,1.2072,1.2049,1.2035,1.2006,1.197,1.1952,1.1939,1.1924,1.1928,1.1929,1.193,1.1935,1.1887,1.1935,1.1934,1.1934,1.1934,1.1934,0,1.2279,1.226,1.2247,1.2221,1.221,1.2184,1.216,1.2152,1.2141,1.2118,1.2102,1.2083,1.2065,1.2031,1.2009,1.2006,1.1992,1.2001,1.2001,1.1997,1.195,1.195,1.2013,1.2013,1.2013,1.2013,1.2013,1.2013,1.231,1.2308,1.2288,1.2275,1.2254,1.2242,1.2231,1.2213,1.2194,1.2175,1.2161,1.2138,1.211,1.2086,1.2067,1.2057,1.2051,1.2065,1.2051,1.2008,1.2,1.1993,1.1993,1.2064,1.2064,1.2099,1.2099,1.21]}]]